{"data":{"norad_id":66115,"intl_designator":"2025-237B","name":"STARLINK-35428","alt_names":[],"object_type":"PAYLOAD","status":"ACTIVE","operator":null,"country":"US","launch_date":"2025-10-22","launch_site_code":"AFWTR","launch_vehicle":null,"mission":null,"orbit_class":"UNKNOWN","rcs_meters":null,"size_class":null,"mass_kg":null,"dimensions":null,"purposes":["comms"],"wikipedia_slug":null,"has_3d_model":false,"image_url":null,"decayed_at":null,"tle_current":{"epoch":"2026-05-25T03:25:29.400096Z","epoch_age_seconds":56107,"freshness":"FRESH","line1":"1 66115U 25237B   26145.14270139  .00018666  00000+0  64091-3 0  9992","line2":"2 66115  53.1588  44.6651 0001049  85.7683 274.3438 15.30191958 34301","mean_motion":15.30191958,"eccentricity":0.0001049,"inclination_deg":53.1588,"raan_deg":44.6651,"arg_perigee_deg":85.7683,"mean_anomaly_deg":274.3438,"bstar":0.00064091,"rev_number":3430,"period_min":94.105840281772,"perigee_km":474.52016233596,"apogee_km":475.95800063786,"semimajor_km":6853.3760814869,"source":"CELESTRAK","updated_at":"2026-05-25T13:38:21.061375Z"}}}